"Datum/tijd (MEZT)";"astronomisch [cm]";"waterstand [cm]";"verwachte opzet";"verwachting RWS"
2024-04-15 17:00;-27;31;44;17
2024-04-15 17:10;-22;40;45;23
2024-04-15 17:20;-17;42;47;30
2024-04-15 17:30;-11;47;52;41
2024-04-15 17:40;-5;60;54;49
2024-04-15 17:50;1;70;57;58
2024-04-15 18:00;7;76;60;67
2024-04-15 18:10;13;85;64;77
2024-04-15 18:20;19;96;68;87
2024-04-15 18:30;25;104;71;96
2024-04-15 18:40;30;109;74;104
2024-04-15 18:50;35;112;76;111
2024-04-15 19:00;40;111;86;126
2024-04-15 19:10;43;118;87;130
2024-04-15 19:20;46;119;86;132
2024-04-15 19:30;49;121;85;134
2024-04-15 19:40;50;125;85;135
2024-04-15 19:50;51;123;83;134
2024-04-15 20:00;51;118;82;133
2024-04-15 20:10;50;116;81;131
2024-04-15 20:20;49;117;80;129
2024-04-15 20:30;48;117;78;126
2024-04-15 20:40;46;115;78;124
2024-04-15 20:50;44;114;77;121
2024-04-15 21:00;41;110;75;116
2024-04-15 21:10;38;106;74;112
2024-04-15 21:20;35;102;73;108
2024-04-15 21:30;31;95;72;103
2024-04-15 21:40;27;89;71;98
2024-04-15 21:50;23;86;69;92
2024-04-15 22:00;19;84;66;85
2024-04-15 22:10;14;79;66;80
2024-04-15 22:20;9;74;64;73
2024-04-15 22:30;3;65;63;66
2024-04-15 22:40;-2;59;61;59
2024-04-15 22:50;-8;50;60;52
2024-04-15 23:00;-13;44;58;45
2024-04-15 23:10;-19;38;57;38
2024-04-15 23:20;-25;35;56;31
2024-04-15 23:30;-31;31;55;24
2024-04-15 23:40;-37;25;55;18
2024-04-15 23:50;-42;18;54;12
2024-04-16 00:00;-48;12;53;5
2024-04-16 00:10;-53;8;53;0
2024-04-16 00:20;-58;2;53;-5
2024-04-16 00:30;-63;0;52;-11
2024-04-16 00:40;-67;-3;52;-15
2024-04-16 00:50;-71;-6;51;-20
2024-04-16 01:00;-75;-6;61;-14
2024-04-16 01:10;-78;-10;61;-17
2024-04-16 01:20;-80;-12;61;-19
2024-04-16 01:30;-82;-14;61;-21
2024-04-16 01:40;-84;-15;61;-23
2024-04-16 01:50;-85;-16;61;-24
2024-04-16 02:00;-86;-17;61;-25
2024-04-16 02:10;-86;-18;60;-26
2024-04-16 02:20;-86;-19;60;-26
2024-04-16 02:30;-85;-17;59;-26
2024-04-16 02:40;-84;-15;59;-25
2024-04-16 02:50;-83;-12;59;-24
2024-04-16 03:00;-81;-12;59;-22
2024-04-16 03:10;-79;-10;58;-21
2024-04-16 03:20;-77;-7;59;-18
2024-04-16 03:30;-75;-7;60;-15
2024-04-16 03:40;-72;-5;60;-12
2024-04-16 03:50;-69;-4;61;-8
2024-04-16 04:00;-66;2;62;-4
2024-04-16 04:10;-63;8;62;-1
2024-04-16 04:20;-60;12;63;3
2024-04-16 04:30;-56;16;64;8
2024-04-16 04:40;-51;22;63;12
2024-04-16 04:50;-47;27;63;16
2024-04-16 05:00;-42;32;63;21
2024-04-16 05:10;-36;38;63;27
2024-04-16 05:20;-31;46;64;33
2024-04-16 05:30;-24;54;65;41
2024-04-16 05:40;-18;63;66;48
2024-04-16 05:50;-11;73;68;57
2024-04-16 06:00;-4;83;71;67
2024-04-16 06:10;3;91;73;76
2024-04-16 06:20;10;97;75;85
2024-04-16 06:30;17;103;80;97
2024-04-16 06:40;24;109;82;106
2024-04-16 06:50;31;118;84;115
2024-04-16 07:00;38;126;86;124
2024-04-16 07:10;44;132;87;131
2024-04-16 07:20;50;138;88;138
2024-04-16 07:30;55;142;89;144
2024-04-16 07:40;59;147;90;149
2024-04-16 07:50;63;151;90;153
2024-04-16 08:00;66;153;91;157
2024-04-16 08:10;68;152;91;159
2024-04-16 08:20;70;152;91;161
2024-04-16 08:30;71;155;90;161
2024-04-16 08:40;71;153;90;161
2024-04-16 08:50;71;150;89;160
2024-04-16 09:00;70;147;88;158
2024-04-16 09:10;69;146;86;155
2024-04-16 09:20;67;143;85;152
2024-04-16 09:30;65;143;83;148
2024-04-16 09:40;63;141;82;145
2024-04-16 09:50;60;138;81;141
2024-04-16 10:00;56;135;80;136
2024-04-16 10:10;53;130;79;132
2024-04-16 10:20;49;126;78;127
2024-04-16 10:30;45;121;76;121
2024-04-16 10:40;41;116;75;116
2024-04-16 10:50;37;110;72;109
2024-04-16 11:00;32;104;75;107
2024-04-16 11:10;27;97;72;99
2024-04-16 11:20;23;88;69;92
2024-04-16 11:30;18;82;67;85
2024-04-16 11:40;13;76;64;77
2024-04-16 11:50;8;70;62;70
2024-04-16 12:00;3;62;60;63
2024-04-16 12:10;-2;57;58;56
2024-04-16 12:20;-7;50;57;50
2024-04-16 12:30;-12;44;55;43
2024-04-16 12:40;-17;38;54;37
2024-04-16 12:50;-22;33;52;30
2024-04-16 13:00;-27;28;51;24
2024-04-16 13:10;-31;22;51;20
2024-04-16 13:20;-36;18;52;16
2024-04-16 13:30;-40;14;51;11
2024-04-16 13:40;-43;11;51;8
2024-04-16 13:50;-46;8;50;4
2024-04-16 14:00;-49;5;50;1
2024-04-16 14:10;-52;4;51;-1
2024-04-16 14:20;-54;3;51;-3
2024-04-16 14:30;-56;2;53;-3
2024-04-16 14:40;-57;1;54;-3
2024-04-16 14:50;-58;-1;54;-4
2024-04-16 15:00;-58;-1;54;-4
2024-04-16 15:10;-58;-1;54;-4
2024-04-16 15:20;-58;-1;55;-3
2024-04-16 15:30;-57;-2;55;-2
2024-04-16 15:40;-56;-1;55;-1
2024-04-16 15:50;-55;0;55;0
2024-04-16 16:00;-54;2;55;1
2024-04-16 16:10;-52;3;54;2
2024-04-16 16:20;-51;4;54;3
2024-04-16 16:30;-49;6;52;3
2024-04-16 16:40;-47;9;51;4
2024-04-16 16:50;-45;11;51;6
2024-04-16 17:00;-42;12;49;7
2024-04-16 17:10;-39;13;47;8
2024-04-16 17:20;-36;13;45;9
2024-04-16 17:30;-33;15;44;11
2024-04-16 17:40;-29;17;41;12
2024-04-16 17:50;-25;19;38;13
2024-04-16 18:00;-21;21;35;14
2024-04-16 18:10;-17;23;33;16
2024-04-16 18:20;-13;25;31;18
2024-04-16 18:30;-8;27;29;21
2024-04-16 18:40;-4;31;28;24
2024-04-16 18:50;1;34;27;28
2024-04-16 19:00;5;38;27;32
2024-04-16 19:10;10;41;25;35
2024-04-16 19:20;14;44;24;38
2024-04-16 19:30;18;47;24;42
2024-04-16 19:40;21;50;23;44
2024-04-16 19:50;25;52;22;47
2024-04-16 20:00;28;54;21;49
2024-04-16 20:10;30;56;21;51
2024-04-16 20:20;32;58;21;53
2024-04-16 20:30;34;60;21;55
2024-04-16 20:40;35;61;20;55
2024-04-16 20:50;36;62;19;55
2024-04-16 21:00;37;62;19;56
2024-04-16 21:10;37;61;18;55
2024-04-16 21:20;37;61;17;54
2024-04-16 21:30;36;58;16;52
2024-04-16 21:40;36;57;14;50
2024-04-16 21:50;34;55;13;47
2024-04-16 22:00;33;52;11;44
2024-04-16 22:10;31;49;10;41
2024-04-16 22:20;29;46;9;38
2024-04-16 22:30;27;43;7;34
2024-04-16 22:40;24;39;6;30
2024-04-16 22:50;21;35;4;25
2024-04-16 23:00;17;30;4;21
2024-04-16 23:10;13;25;3;16
2024-04-16 23:20;9;21;1;10
2024-04-16 23:30;4;16;1;5
2024-04-16 23:40;0;11;-1;-1
2024-04-16 23:50;-5;5;-2;-7
2024-04-17 00:00;-10;0;-3;-13
2024-04-17 00:10;-15;-7;-4;-19
2024-04-17 00:20;-21;-13;-4;-25
2024-04-17 00:30;-26;-18;5;-21
2024-04-17 00:40;-31;-25;4;-27
2024-04-17 00:50;-36;-30;2;-34
2024-04-17 01:00;-41;-36;2;-39
2024-04-17 01:10;-46;-41;1;-45
2024-04-17 01:20;-51;-47;0;-51
2024-04-17 01:30;-56;-52;-1;-57
2024-04-17 01:40;-60;-58;-2;-62
2024-04-17 01:50;-64;-62;-4;-68
2024-04-17 02:00;-68;-66;-4;-72
2024-04-17 02:10;-71;-70;-5;-76
2024-04-17 02:20;-74;-73;-7;-81
2024-04-17 02:30;-77;-76;-6;-83
2024-04-17 02:40;-79;;-7;-86
2024-04-17 02:50;-81;;-8;-89
2024-04-17 03:00;-82;;-8;-90
2024-04-17 03:10;-83;;-9;-92
2024-04-17 03:20;-84;;-7;-91
2024-04-17 03:30;-84;;-6;-90
2024-04-17 03:40;-84;;-6;-90
2024-04-17 03:50;-83;;-5;-88
2024-04-17 04:00;-82;;-4;-86
2024-04-17 04:10;-81;;-4;-85
2024-04-17 04:20;-79;;-4;-83
2024-04-17 04:30;-77;;-3;-80
2024-04-17 04:40;-75;;-4;-79
2024-04-17 04:50;-72;;-4;-76
2024-04-17 05:00;-69;;-3;-72
2024-04-17 05:10;-65;;-5;-70
2024-04-17 05:20;-62;;-4;-66
2024-04-17 05:30;-58;;-5;-63
2024-04-17 05:40;-53;;-6;-59
2024-04-17 05:50;-49;;-6;-55
2024-04-17 06:00;-44;;-7;-51
2024-04-17 06:10;-39;;-7;-46
2024-04-17 06:20;-33;;-9;-42
2024-04-17 06:30;-28;;-9;-37
2024-04-17 06:40;-22;;-9;-31
2024-04-17 06:50;-17;;-8;-25
2024-04-17 07:00;-11;;-8;-19
2024-04-17 07:10;-5;;-9;-14
2024-04-17 07:20;0;;-8;-8
2024-04-17 07:30;6;;-8;-2
2024-04-17 07:40;12;;-8;4
2024-04-17 07:50;17;;-7;10
2024-04-17 08:00;22;;-5;17
2024-04-17 08:10;28;;-3;25
2024-04-17 08:20;32;;0;32
2024-04-17 08:30;37;;1;38
2024-04-17 08:40;41;;3;44
2024-04-17 08:50;45;;5;50
2024-04-17 09:00;49;;6;55
2024-04-17 09:10;52;;8;60
2024-04-17 09:20;55;;9;64
2024-04-17 09:30;57;;11;68
2024-04-17 09:40;59;;11;70
2024-04-17 09:50;60;;12;72
2024-04-17 10:00;61;;13;74
2024-04-17 10:10;62;;12;74
2024-04-17 10:20;62;;12;74
2024-04-17 10:30;62;;12;74
2024-04-17 10:40;61;;12;73
2024-04-17 10:50;60;;12;72
2024-04-17 11:00;58;;12;70
2024-04-17 11:10;56;;12;68
2024-04-17 11:20;53;;12;65
2024-04-17 11:30;51;;11;62
2024-04-17 11:40;47;;12;59
2024-04-17 11:50;44;;12;56
2024-04-17 12:00;40;;12;52
2024-04-17 12:10;37;;12;49
2024-04-17 12:20;33;;12;45
2024-04-17 12:30;28;;13;41
2024-04-17 12:40;24;;13;37
2024-04-17 12:50;19;;14;33
2024-04-17 13:00;15;;12;27
2024-04-17 13:10;10;;12;22
2024-04-17 13:20;5;;12;17
2024-04-17 13:30;0;;11;11
2024-04-17 13:40;-5;;11;6
2024-04-17 13:50;-9;;9;0
2024-04-17 14:00;-14;;9;-5
2024-04-17 14:10;-19;;9;-10
2024-04-17 14:20;-23;;8;-15
2024-04-17 14:30;-28;;9;-19
2024-04-17 14:40;-32;;9;-23
2024-04-17 14:50;-36;;10;-26
2024-04-17 15:00;-39;;10;-29
2024-04-17 15:10;-42;;10;-32
2024-04-17 15:20;-45;;11;-34
2024-04-17 15:30;-48;;12;-36
2024-04-17 15:40;-50;;13;-37
2024-04-17 15:50;-51;;13;-38
2024-04-17 16:00;-53;;14;-39
2024-04-17 16:10;-53;;14;-39
2024-04-17 16:20;-54;;15;-39
2024-04-17 16:30;-54;;16;-38
2024-04-17 16:40;-53;;15;-38
2024-04-17 16:50;-53;;16;-37
2024-04-17 17:00;-52;;16;-36
2024-04-17 17:10;-51;;16;-35
2024-04-17 17:20;-49;;16;-33
2024-04-17 17:30;-48;;16;-32
2024-04-17 17:40;-46;;16;-30
2024-04-17 17:50;-44;;15;-29
2024-04-17 18:00;-41;;14;-27
2024-04-17 18:10;-39;;13;-26
2024-04-17 18:20;-36;;12;-24
2024-04-17 18:30;-33;;11;-22
2024-04-17 18:40;-30;;10;-20
2024-04-17 18:50;-27;;8;-19
2024-04-17 19:00;-24;;7;-17
2024-04-17 19:10;-21;;8;-13
2024-04-17 19:20;-18;;8;-10
2024-04-17 19:30;-14;;7;-7
2024-04-17 19:40;-11;;6;-5
2024-04-17 19:50;-8;;7;-1
2024-04-17 20:00;-5;;7;2
2024-04-17 20:10;-1;;6;5
2024-04-17 20:20;2;;7;9
2024-04-17 20:30;5;;7;12
2024-04-17 20:40;8;;9;17
2024-04-17 20:50;11;;10;21
2024-04-17 21:00;14;;11;25
2024-04-17 21:10;17;;13;30
2024-04-17 21:20;19;;15;34
2024-04-17 21:30;22;;16;38
2024-04-17 21:40;24;;17;41
2024-04-17 21:50;26;;18;44
2024-04-17 22:00;28;;18;46
2024-04-17 22:10;30;;18;48
2024-04-17 22:20;31;;18;49
2024-04-17 22:30;32;;18;50
2024-04-17 22:40;33;;18;51
2024-04-17 22:50;34;;17;51
2024-04-17 23:00;34;;16;50
2024-04-17 23:10;34;;15;49
2024-04-17 23:20;33;;14;47
2024-04-17 23:30;32;;13;45
2024-04-17 23:40;30;;12;42
2024-04-17 23:50;27;;12;39
2024-04-18 00:00;25;;11;36
2024-04-18 00:10;21;;12;33
2024-04-18 00:20;17;;12;29
2024-04-18 00:30;13;;12;25
2024-04-18 00:40;9;;12;21
2024-04-18 00:50;5;;11;16
2024-04-18 01:00;0;;12;12
2024-04-18 01:10;-5;;12;7
2024-04-18 01:20;-10;;13;3
2024-04-18 01:30;-15;;13;-2
2024-04-18 01:40;-21;;14;-7
2024-04-18 01:50;-26;;13;-13
2024-04-18 02:00;-31;;13;-18
2024-04-18 02:10;-36;;13;-23
2024-04-18 02:20;-41;;13;-28
2024-04-18 02:30;-46;;12;-34
2024-04-18 02:40;-51;;12;-39
2024-04-18 02:50;-55;;11;-44
2024-04-18 03:00;-60;;11;-49
2024-04-18 03:10;-64;;11;-53
2024-04-18 03:20;-68;;11;-57
2024-04-18 03:30;-71;;11;-60
2024-04-18 03:40;-75;;12;-63
2024-04-18 03:50;-78;;12;-66
2024-04-18 04:00;-80;;11;-69
2024-04-18 04:10;-82;;11;-71
2024-04-18 04:20;-84;;12;-72
2024-04-18 04:30;-85;;13;-72
2024-04-18 04:40;-85;;12;-73
2024-04-18 04:50;-85;;13;-72
2024-04-18 05:00;-85;;14;-71
2024-04-18 05:10;-84;;14;-70
2024-04-18 05:20;-82;;12;-70
2024-04-18 05:30;-80;;12;-68
2024-04-18 05:40;-78;;12;-66
2024-04-18 05:50;-75;;10;-65
2024-04-18 06:00;-73;;10;-63
2024-04-18 06:10;-69;;9;-60
2024-04-18 06:20;-66;;8;-58
2024-04-18 06:30;-62;;7;-55
2024-04-18 06:40;-58;;5;-53
2024-04-18 06:50;-54;;4;-50
2024-04-18 07:00;-50;;3;-47
2024-04-18 07:10;-46;;2;-44
2024-04-18 07:20;-42;;1;-41
2024-04-18 07:30;-37;;-1;-38
2024-04-18 07:40;-33;;-1;-34
2024-04-18 07:50;-29;;-1;-30
2024-04-18 08:00;-24;;-3;-27
2024-04-18 08:10;-20;;-3;-23
2024-04-18 08:20;-15;;-3;-18
2024-04-18 08:30;-10;;-4;-14
2024-04-18 08:40;-5;;-3;-8
2024-04-18 08:50;0;;-2;-2
2024-04-18 09:00;6;;-3;3
2024-04-18 09:10;11;;-2;9
2024-04-18 09:20;16;;0;16
2024-04-18 09:30;22;;0;22
2024-04-18 09:40;27;;2;29
2024-04-18 09:50;32;;3;35
2024-04-18 10:00;37;;5;42
2024-04-18 10:10;42;;6;48
2024-04-18 10:20;47;;6;53
2024-04-18 10:30;51;;7;58
2024-04-18 10:40;55;;7;62
2024-04-18 10:50;59;;6;65
2024-04-18 11:00;62;;6;68
2024-04-18 11:10;64;;6;70
2024-04-18 11:20;66;;5;71
2024-04-18 11:30;67;;5;72
2024-04-18 11:40;68;;4;72
2024-04-18 11:50;68;;3;71
2024-04-18 12:00;67;;3;70
2024-04-18 12:10;66;;2;68
2024-04-18 12:20;64;;2;66
2024-04-18 12:30;62;;1;63
2024-04-18 12:40;59;;2;61
2024-04-18 12:50;56;;1;57
2024-04-18 13:00;52;;1;53
2024-04-18 13:10;49;;0;49
2024-04-18 13:20;45;;1;46
2024-04-18 13:30;40;;2;42
2024-04-18 13:40;36;;1;37
2024-04-18 13:50;31;;1;32
2024-04-18 14:00;26;;1;27
2024-04-18 14:10;21;;1;22
2024-04-18 14:20;16;;1;17
2024-04-18 14:30;11;;0;11
2024-04-18 14:40;6;;0;6
2024-04-18 14:50;1;;-1;0
2024-04-18 15:00;-4;;-3;-7
2024-04-18 15:10;-10;;-3;-13
2024-04-18 15:20;-15;;-4;-19
2024-04-18 15:30;-20;;-5;-25
2024-04-18 15:40;-25;;-6;-31
2024-04-18 15:50;-30;;-5;-35
2024-04-18 16:00;-34;;-6;-40
2024-04-18 16:10;-38;;-8;-46
2024-04-18 16:20;-42;;-8;-50
2024-04-18 16:30;-45;;-8;-53
2024-04-18 16:40;-48;;-8;-56
2024-04-18 16:50;-50;;-9;-59
2024-04-18 17:00;-52;;-9;-61
2024-04-18 17:10;-53;;-9;-62
2024-04-18 17:20;-54;;-9;-63
2024-04-18 17:30;-54;;-10;-64
2024-04-18 17:40;-54;;-10;-64
2024-04-18 17:50;-54;;-8;-62
2024-04-18 18:00;-53;;-8;-61
2024-04-18 18:10;-52;;-10;-62
2024-04-18 18:20;-51;;-10;-61
2024-04-18 18:30;-50;;-10;-60
2024-04-18 18:40;-48;;-11;-59
2024-04-18 18:50;-46;;-13;-59
2024-04-18 19:00;-45;;-12;-57
2024-04-18 19:10;-43;;-14;-57
2024-04-18 19:20;-40;;-14;-54
2024-04-18 19:30;-38;;-14;-52
2024-04-18 19:40;-36;;-15;-51
2024-04-18 19:50;-34;;-15;-49
2024-04-18 20:00;-32;;-15;-47
2024-04-18 20:10;-29;;-17;-46
2024-04-18 20:20;-27;;-17;-44
2024-04-18 20:30;-24;;-18;-42
2024-04-18 20:40;-21;;-19;-40
2024-04-18 20:50;-19;;-18;-37
2024-04-18 21:00;-16;;-18;-34
2024-04-18 21:10;-12;;-19;-31
2024-04-18 21:20;-9;;-18;-27
2024-04-18 21:30;-6;;-17;-23
2024-04-18 21:40;-2;;-16;-18
2024-04-18 21:50;1;;-15;-14
2024-04-18 22:00;5;;-13;-8
2024-04-18 22:10;9;;-12;-3
2024-04-18 22:20;13;;-10;3
2024-04-18 22:30;17;;-10;7
2024-04-18 22:40;21;;-8;13
2024-04-18 22:50;24;;-7;17
2024-04-18 23:00;28;;-6;22
2024-04-18 23:10;32;;-6;26
2024-04-18 23:20;35;;-6;29
2024-04-18 23:30;38;;-6;32
2024-04-18 23:40;41;;-7;34
2024-04-18 23:50;43;;-7;36
2024-04-19 00:00;44;;-6;38
2024-04-19 00:10;44;;-6;38
2024-04-19 00:20;44;;-6;38
2024-04-19 00:30;43;;-6;37
2024-04-19 00:40;41;;-6;35
2024-04-19 00:50;39;;-6;33
2024-04-19 01:00;36;;-7;29
2024-04-19 01:10;33;;-7;26
2024-04-19 01:20;29;;-6;23
2024-04-19 01:30;25;;-6;19
2024-04-19 01:40;20;;-4;16
2024-04-19 01:50;15;;-3;12
2024-04-19 02:00;10;;-2;8
2024-04-19 02:10;5;;0;5
2024-04-19 02:20;0;;2;2
2024-04-19 02:30;-6;;4;-2
2024-04-19 02:40;-11;;5;-6
2024-04-19 02:50;-17;;6;-11
2024-04-19 03:00;-23;;7;-16
2024-04-19 03:10;-28;;5;-23
2024-04-19 03:20;-34;;6;-28
2024-04-19 03:30;-39;;5;-34
2024-04-19 03:40;-45;;6;-39
2024-04-19 03:50;-50;;6;-44
2024-04-19 04:00;-56;;8;-48
2024-04-19 04:10;-61;;8;-53
2024-04-19 04:20;-66;;10;-56
2024-04-19 04:30;-70;;11;-59
2024-04-19 04:40;-75;;14;-61
2024-04-19 04:50;-78;;15;-63
2024-04-19 05:00;-82;;17;-65
2024-04-19 05:10;-84;;18;-66
2024-04-19 05:20;-86;;19;-67
2024-04-19 05:30;-87;;21;-66
2024-04-19 05:40;-88;;23;-65
2024-04-19 05:50;-88;;24;-64
2024-04-19 06:00;-88;;26;-62
2024-04-19 06:10;-87;;27;-60
2024-04-19 06:20;-85;;26;-59
2024-04-19 06:30;-84;;27;-57
2024-04-19 06:40;-82;;27;-55
2024-04-19 06:50;-79;;26;-53
2024-04-19 07:00;-77;;26;-51
2024-04-19 07:10;-74;;26;-48
2024-04-19 07:20;-71;;26;-45
2024-04-19 07:30;-68;;25;-43
2024-04-19 07:40;-64;;23;-41
2024-04-19 07:50;-61;;23;-38
2024-04-19 08:00;-58;;22;-36
2024-04-19 08:10;-54;;21;-33
2024-04-19 08:20;-51;;22;-29
2024-04-19 08:30;-47;;21;-26
2024-04-19 08:40;-44;;21;-23
2024-04-19 08:50;-40;;22;-18
2024-04-19 09:00;-36;;23;-13
2024-04-19 09:10;-32;;24;-8
2024-04-19 09:20;-27;;25;-2
2024-04-19 09:30;-22;;26;4
2024-04-19 09:40;-17;;27;10
2024-04-19 09:50;-11;;29;18
2024-04-19 10:00;-5;;32;27
2024-04-19 10:10;2;;33;35
2024-04-19 10:20;8;;36;44
2024-04-19 10:30;15;;39;54
2024-04-19 10:40;22;;42;64
2024-04-19 10:50;29;;44;73
2024-04-19 11:00;37;;44;81
2024-04-19 11:10;43;;48;91
2024-04-19 11:20;50;;49;99
2024-04-19 11:30;56;;50;106
2024-04-19 11:40;62;;51;113
2024-04-19 11:50;67;;51;118
2024-04-19 12:00;71;;51;122
2024-04-19 12:10;74;;52;126
2024-04-19 12:20;77;;51;128
2024-04-19 12:30;78;;51;129
2024-04-19 12:40;79;;50;129
2024-04-19 12:50;79;;49;128
2024-04-19 13:00;78;;49;127
2024-04-19 13:10;76;;49;125
2024-04-19 13:20;74;;49;123
2024-04-19 13:30;72;;50;122
2024-04-19 13:40;68;;51;119
2024-04-19 13:50;65;;51;116
2024-04-19 14:00;61;;53;114
2024-04-19 14:10;57;;53;110
2024-04-19 14:20;52;;55;107
2024-04-19 14:30;47;;58;105
2024-04-19 14:40;42;;59;101
2024-04-19 14:50;37;;61;98
2024-04-19 15:00;32;;62;94
2024-04-19 15:10;26;;64;90
2024-04-19 15:20;21;;65;86
2024-04-19 15:30;15;;65;80
2024-04-19 15:40;9;;66;75
2024-04-19 15:50;3;;66;69
2024-04-19 16:00;-3;;67;64
2024-04-19 16:10;-9;;67;58
2024-04-19 16:20;-15;;69;54
2024-04-19 16:30;-21;;70;49
2024-04-19 16:40;-27;;72;45
2024-04-19 16:50;-32;;74;42
2024-04-19 17:00;-37;;75;38
2024-04-19 17:10;-42;;77;35
2024-04-19 17:20;-46;;78;32
2024-04-19 17:30;-49;;79;30
2024-04-19 17:40;-52;;80;28
2024-04-19 17:50;-54;;79;25
2024-04-19 18:00;-56;;80;24
2024-04-19 18:10;-57;;80;23
2024-04-19 18:20;-57;;80;23
2024-04-19 18:30;-58;;81;23
2024-04-19 18:40;-57;;81;24
2024-04-19 18:50;-57;;81;24
2024-04-19 19:00;-56;;82;26
2024-04-19 19:10;-55;;82;27
2024-04-19 19:20;-54;;82;28
2024-04-19 19:30;-53;;83;30
2024-04-19 19:40;-51;;83;32
2024-04-19 19:50;-50;;84;34
2024-04-19 20:00;-48;;85;37
2024-04-19 20:10;-47;;85;38
2024-04-19 20:20;-45;;86;41
2024-04-19 20:30;-44;;88;44
2024-04-19 20:40;-42;;87;45
2024-04-19 20:50;-40;;87;47
2024-04-19 21:00;-38;;88;50
2024-04-19 21:10;-36;;87;51
2024-04-19 21:20;-34;;90;56
2024-04-19 21:30;-31;;89;58
2024-04-19 21:40;-28;;88;60
2024-04-19 21:50;-25;;88;63
2024-04-19 22:00;-22;;90;68
2024-04-19 22:10;-18;;88;70
2024-04-19 22:20;-14;;89;75
2024-04-19 22:30;-9;;89;80
2024-04-19 22:40;-5;;89;84
2024-04-19 22:50;0;;88;88
2024-04-19 23:00;5;;89;94
2024-04-19 23:10;11;;90;101
2024-04-19 23:20;17;;90;107
2024-04-19 23:30;23;;89;112
2024-04-19 23:40;29;;90;119
2024-04-19 23:50;34;;91;125
2024-04-20 00:00;40;;89;129
2024-04-20 00:10;44;;89;133
2024-04-20 00:20;49;;87;136
2024-04-20 00:30;52;;86;138
2024-04-20 00:40;55;;83;138
2024-04-20 00:50;56;;82;138
2024-04-20 01:00;57;;79;136
2024-04-20 01:10;57;;77;134
2024-04-20 01:20;56;;75;131
2024-04-20 01:30;54;;74;128
2024-04-20 01:40;52;;72;124
2024-04-20 01:50;49;;70;119
2024-04-20 02:00;45;;70;115
2024-04-20 02:10;41;;68;109
2024-04-20 02:20;37;;67;104
2024-04-20 02:30;32;;67;99
2024-04-20 02:40;27;;66;93
2024-04-20 02:50;21;;66;87
2024-04-20 03:00;16;;66;82
2024-04-20 03:10;10;;66;76
2024-04-20 03:20;4;;66;70
2024-04-20 03:30;-2;;65;63
2024-04-20 03:40;-8;;65;57
2024-04-20 03:50;-15;;64;49
2024-04-20 04:00;-21;;62;41
2024-04-20 04:10;-27;;60;33
2024-04-20 04:20;-34;;58;24
2024-04-20 04:30;-40;;55;15
2024-04-20 04:40;-47;;54;7
2024-04-20 04:50;-53;;51;-2
2024-04-20 05:00;-59;;48;-11
2024-04-20 05:10;-65;;47;-18
2024-04-20 05:20;-70;;44;-26
2024-04-20 05:30;-75;;43;-32
2024-04-20 05:40;-80;;41;-39
2024-04-20 05:50;-83;;38;-45
2024-04-20 06:00;-86;;36;-50
2024-04-20 06:10;-88;;35;-53
2024-04-20 06:20;-90;;35;-55
2024-04-20 06:30;-91;;34;-57
2024-04-20 06:40;-91;;34;-57
2024-04-20 06:50;-91;;34;-57
2024-04-20 07:00;-90;;33;-57
2024-04-20 07:10;-89;;33;-56
2024-04-20 07:20;-87;;32;-55
2024-04-20 07:30;-85;;31;-54
2024-04-20 07:40;-83;;30;-53
2024-04-20 07:50;-81;;30;-51
2024-04-20 08:00;-78;;29;-49
2024-04-20 08:10;-75;;28;-47
2024-04-20 08:20;-73;;28;-45
2024-04-20 08:30;-70;;27;-43
2024-04-20 08:40;-67;;27;-40
2024-04-20 08:50;-64;;24;-40
2024-04-20 09:00;-61;;24;-37
2024-04-20 09:10;-58;;23;-35
2024-04-20 09:20;-55;;21;-34
2024-04-20 09:30;-52;;19;-33
2024-04-20 09:40;-48;;18;-30
2024-04-20 09:50;-45;;17;-28
2024-04-20 10:00;-40;;14;-26
2024-04-20 10:10;-36;;14;-22
2024-04-20 10:20;-30;;10;-20
2024-04-20 10:30;-24;;8;-16
2024-04-20 10:40;-18;;6;-12
2024-04-20 10:50;-11;;4;-7
2024-04-20 11:00;-3;;1;-2
2024-04-20 11:10;5;;-3;2
2024-04-20 11:20;13;;-4;9
2024-04-20 11:30;22;;-7;15
2024-04-20 11:40;31;;-8;23
2024-04-20 11:50;40;;-9;31
2024-04-20 12:00;48;;-7;41
2024-04-20 12:10;56;;-6;50
2024-04-20 12:20;64;;-6;58
2024-04-20 12:30;70;;-5;65
2024-04-20 12:40;76;;-5;71
2024-04-20 12:50;81;;-4;77
2024-04-20 13:00;84;;-3;81
2024-04-20 13:10;86;;-3;83
2024-04-20 13:20;88;;-3;85
2024-04-20 13:30;88;;-2;86
2024-04-20 13:40;87;;-2;85
2024-04-20 13:50;86;;-3;83
2024-04-20 14:00;84;;-3;81
2024-04-20 14:10;81;;-3;78
2024-04-20 14:20;78;;-3;75
2024-04-20 14:30;74;;-3;71
2024-04-20 14:40;70;;-3;67
2024-04-20 14:50;65;;-2;63
2024-04-20 15:00;61;;-2;59
2024-04-20 15:10;56;;-2;54
2024-04-20 15:20;51;;-1;50
2024-04-20 15:30;45;;0;45
2024-04-20 15:40;40;;0;40
2024-04-20 15:50;34;;-1;33
2024-04-20 16:00;28;;0;28
2024-04-20 16:10;22;;0;22
2024-04-20 16:20;15;;0;15
2024-04-20 16:30;9;;-1;8
2024-04-20 16:40;2;;1;3
2024-04-20 16:50;-5;;1;-4
2024-04-20 17:00;-12;;0;-12
2024-04-20 17:10;-18;;-1;-19
2024-04-20 17:20;-25;;-3;-28
2024-04-20 17:30;-31;;-3;-34
2024-04-20 17:40;-37;;-4;-41
2024-04-20 17:50;-42;;-5;-47
2024-04-20 18:00;-47;;-4;-51
2024-04-20 18:10;-51;;-4;-55
2024-04-20 18:20;-54;;-5;-59
2024-04-20 18:30;-57;;-5;-62
2024-04-20 18:40;-59;;-4;-63
2024-04-20 18:50;-60;;-4;-64
2024-04-20 19:00;-61;;-2;-63
2024-04-20 19:10;-61;;-2;-63
2024-04-20 19:20;-61;;-1;-62
2024-04-20 19:30;-60;;-1;-61
2024-04-20 19:40;-60;;0;-60
2024-04-20 19:50;-59;;0;-59
2024-04-20 20:00;-57;;-1;-58
2024-04-20 20:10;-56;;0;-56
2024-04-20 20:20;-55;;2;-53
2024-04-20 20:30;-54;;2;-52
2024-04-20 20:40;-52;;2;-50
2024-04-20 20:50;-51;;4;-47
2024-04-20 21:00;-49;;4;-45
2024-04-20 21:10;-48;;5;-43
2024-04-20 21:20;-46;;5;-41
2024-04-20 21:30;-45;;5;-40
2024-04-20 21:40;-43;;5;-38
2024-04-20 21:50;-41;;5;-36
2024-04-20 22:00;-39;;4;-35
2024-04-20 22:10;-37;;4;-33
2024-04-20 22:20;-34;;4;-30
2024-04-20 22:30;-31;;3;-28
2024-04-20 22:40;-27;;2;-25
2024-04-20 22:50;-23;;2;-21
2024-04-20 23:00;-19;;2;-17
2024-04-20 23:10;-14;;1;-13
2024-04-20 23:20;-8;;-1;-9
2024-04-20 23:30;-2;;-1;-3
2024-04-20 23:40;4;;-2;2
2024-04-20 23:50;11;;-4;7
2024-04-21 00:00;19;;-4;15
2024-04-21 00:10;26;;-4;22
2024-04-21 00:20;33;;-3;30
2024-04-21 00:30;40;;-1;39
2024-04-21 00:40;47;;-2;45
2024-04-21 00:50;53;;0;53
2024-04-21 01:00;58;;0;58
2024-04-21 01:10;62;;0;62
2024-04-21 01:20;65;;1;66
2024-04-21 01:30;66;;2;68
2024-04-21 01:40;67;;3;70
2024-04-21 01:50;67;;4;71
2024-04-21 02:00;66;;4;70
2024-04-21 02:10;64;;5;69
2024-04-21 02:20;62;;4;66
2024-04-21 02:30;59;;3;62
2024-04-21 02:40;55;;3;58
2024-04-21 02:50;51;;2;53
2024-04-21 03:00;46;;3;49
2024-04-21 03:10;41;;3;44
2024-04-21 03:20;36;;3;39
2024-04-21 03:30;30;;5;35
2024-04-21 03:40;24;;7;31
2024-04-21 03:50;18;;7;25
2024-04-21 04:00;12;;8;20
2024-04-21 04:10;6;;8;14
2024-04-21 04:20;-1;;10;9
2024-04-21 04:30;-8;;9;1
2024-04-21 04:40;-15;;9;-6
2024-04-21 04:50;-22;;9;-13
2024-04-21 05:00;-29;;8;-21
2024-04-21 05:10;-36;;7;-29
2024-04-21 05:20;-44;;7;-37
2024-04-21 05:30;-51;;7;-44
2024-04-21 05:40;-57;;6;-51
2024-04-21 05:50;-64;;6;-58
2024-04-21 06:00;-70;;5;-65
2024-04-21 06:10;-75;;4;-71
2024-04-21 06:20;-79;;2;-77
2024-04-21 06:30;-83;;0;-83
2024-04-21 06:40;-87;;1;-86
2024-04-21 06:50;-89;;-1;-90
2024-04-21 07:00;-91;;-1;-92
2024-04-21 07:10;-92;;0;-92
2024-04-21 07:20;-92;;0;-92
2024-04-21 07:30;-92;;1;-91
2024-04-21 07:40;-91;;1;-90
2024-04-21 07:50;-90;;2;-88
2024-04-21 08:00;-89;;2;-87
2024-04-21 08:10;-87;;3;-84
2024-04-21 08:20;-85;;3;-82
2024-04-21 08:30;-82;;3;-79
2024-04-21 08:40;-80;;4;-76
2024-04-21 08:50;-77;;3;-74